Location: Fernhill
(41.0167°S, 175.6333°E)
Time: 17:12:03
(UTC+00:00)

Cosmos 1833 Rocket - Pass Details

Date: 18 February 2026
Orbit: 832 x 837 km, 71.0° (Epoch: 8 March)

Event Time Altitude Azimuth Distance (km) Brightness Sun altitude
Exits shadow 12:56:23 33° 169° (SSE) 1,403 4.2 -37.2°
Drops below altitude 10° 12:59:25 10° 160° (SSE) 2,477 5.8 -37.1°
Sets 13:01:54 0° 158° (SSE) 3,419 6.8 -37.0°
